Location: Ferchesar
(52.6477°N, 12.4298°E)
Time: 14:53:23
(UTC+01:00)

Vanguard 3 - Pass Details

Date: 12 December 2021
Orbit: 508 x 3260 km, 33.3° (Epoch: 25 January)

Event Time Altitude Azimuth Distance (km) Brightness Sun altitude
Exits shadow 00:11:10 12° 104° (ESE) 5,980 11.4 -60.4°
Drops below altitude 10° 00:12:51 10° 100° (E) 6,199 11.5 -60.4°
Sets 00:19:35 0° 87° (E) 7,183 12.0 -60.3°
